Location: Marcé
(47.5801°N, 0.3280°W)
Time: 04:08:09
(UTC+01:00)

Explorer 11/Cluster Stage 4 - Pass Details

Date: 07 December 2021
Orbit: 467 x 1255 km, 28.8° (Epoch: 26 January)

Event Time Altitude Azimuth Distance (km) Brightness Sun altitude
Rises 03:45:51 0° 233° (SW) 3,411 - -47.5°
Reaches altitude 10° 03:49:28 10° 210° (SSW) 2,647 - -46.9°
Maximum altitude 03:52:52 15° 178° (S) 2,460 - -46.4°
Drops below altitude 10° 03:56:34 10° 147° (SSE) 2,935 - -45.8°
Exits shadow 03:57:56 - 139° (SE) 3,238 9.9 -45.6°
Sets 04:00:58 0° 126° (SE) 4,032 10.6 -45.1°
